Location: Banska Bystrica
(0.0000°N, 19.1500°E)
Time: 19:44:28
(UTC+01:00)

Cosmos 2298 Rocket - Pass Details

Date: 19 February 2019
Orbit: 775 x 784 km, 74.0° (Epoch: 22 March)

Event Time Altitude Azimuth Distance (km) Brightness Sun altitude
Rises 18:25:40 0° 359° (N) 3,256 7.1 -7.0°
Reaches altitude 10° 18:28:08 10° 5° (N) 2,330 6.3 -7.6°
Maximum altitude 18:33:12 46° 78° (ENE) 1,037 4.3 -8.8°
Drops below altitude 10° 18:38:16 10° 151° (SSE) 2,336 6.3 -10.1°
Sets 18:40:44 0° 156° (SSE) 3,264 7.1 -10.7°
